Wind_Speed
11 11 10 9 9 10 11 13 13 11 9 8 7 7 6 5 4 4 3 4 6 7 8 9 10 11 11 11 11 11 12 14 17 21 22 21 20 18 17 15 14 12 11 10 9 8 6 5 4 4 3 3 2 2 4 5 6 7 5 5 4 5 6 6 5 4 4 4 5 5 5 5 5 4 3 3 3 2 2 2 2 3 4 4 4 3 3 4
12 12 12 11 10 10 11 13 14 12 10 8 7 7 6 6 5 4 3 4 5 7 8 9 10 11 11 11 11 11 12 13 15 19 22 22 21 19 18 16 15 14 12 11 10 9 8 6 5 5 4 4 3 2 2 3 4 6 6 4 3 3 4 4 3 3 4 4 3 5 5 6 6 4 3 3 4 3 2 2 1 3 4 5 5 4 3 4
14 13 12 11 11 10 11 13 14 13 10 8 7 7 6 6 5 5 4 4 4 6 7 9 10 11 12 12 12 12 12 13 14 16 19 21 21 20 19 18 16 15 14 12 11 10 9 8 6 5 5 4 3 2 1 1 2 4 6 6 4 2 2 3 3 2 3 3 2 4 5 5 6 5 4 4 4 3 2 2 1 2 4 4 5 5 4 4
14 14 13 12 10 10 11 13 13 12 9 8 7 7 6 6 5 5 4 4 4 5 7 9 10 11 12 12 12 12 13 14 14 15 17 19 21 21 20 19 18 17 15 14 12 11 10 9 7 6 5 4 4 2 2 1 1 2 4 3 3 1 2 4 3 2 1 2 1 4 5 5 6 6 5 5 4 3 3 3 2 2 4 4 5 5 5 5
15 14 14 12 10 10 12 12 12 11 10 9 7 7 6 6 5 5 5 4 5 5 7 8 9 11 11 12 12 13 14 14 13 14 16 17 19 20 21 21 20 19 17 15 13 11 10 9 9 7 6 5 4 4 3 3 2 1 1 1 2 3 1 3 3 1 2 2 2 4 5 5 6 7 7 6 4 4 4 3 2 3 4 4 5 5 5 6
16 15 14 12 10 10 12 12 12 12 11 10 8 7 6 6 5 6 5 5 5 5 6 7 8 10 11 12 13 14 15 11 12 15 15 16 17 19 21 21 22 21 19 17 15 13 11 10 9 8 7 6 5 5 5 4 3 3 3 3 2 3 2 4 3 2 2 3 3 3 6 6 6 7 7 6 5 5 5 4 3 4 6 5 5 5 6 7
16 15 14 12 11 10 11 11 12 12 12 11 10 8 7 7 6 5 5 5 5 5 6 7 8 9 10 12 13 15 14 11 14 16 16 16 17 17 19 21 22 22 21 20 17 15 12 11 11 10 9 7 7 7 6 6 5 5 4 4 4 2 2 5 5 3 2 3 3 4 7 6 7 7 7 6 6 6 5 4 4 5 6 6 6 6 6 7
17 16 15 13 11 10 11 11 12 12 12 12 11 10 8 7 7 6 6 5 5 5 6 6 7 8 10 11 13 14 13 13 16 17 16 17 17 18 19 20 22 22 22 21 19 17 15 14 13 11 11 9 9 8 7 7 7 7 6 5 5 4 5 7 7 6 4 3 3 6 8 7 7 7 7 7 7 7 6 5 5 6 7 6 6 6 6 6
18 17 15 13 11 11 11 12 12 12 13 13 12 11 9 8 7 6 6 6 6 5 6 6 7 8 9 11 12 13 12 14 17 17 18 18 18 18 19 20 21 21 22 22 20 19 17 16 15 13 12 11 10 9 9 9 9 8 7 6 5 4 7 9 9 8 6 5 5 8 9 8 8 8 7 8 8 7 7 6 5 6 7 8 7 7 7 6
18 17 15 13 12 11 11 12 12 13 13 13 12 11 10 8 7 6 6 6 6 6 6 6 7 8 9 11 12 12 12 14 17 18 18 19 19 20 20 20 20 21 23 22 21 20 18 18 17 16 15 13 12 12 11 11 10 9 8 8 6 4 7 9 9 8 8 8 7 9 10 10 10 9 8 8 9 8 8 7 5 5 8 9 7 7 7 6
19 17 16 14 12 12 12 12 13 13 14 13 13 11 10 9 7 6 6 6 6 6 7 7 7 8 9 11 11 11 13 15 16 18 19 19 20 21 21 20 21 21 22 23 21 19 19 19 19 18 17 16 15 14 14 13 11 10 10 10 8 5 8 10 7 6 8 9 8 11 11 11 10 9 8 8 9 9 8 8 6 5 8 9 8 8 7 6
19 17 16 14 13 13 12 12 13 14 15 14 13 12 11 9 8 7 6 6 6 7 7 8 8 9 10 11 11 12 14 16 16 18 19 20 20 21 21 21 21 22 22 22 20 19 20 20 20 20 19 18 17 16 15 14 12 12 12 12 9 7 10 10 7 6 8 10 8 11 13 12 11 10 9 8 9 10 9 9 7 6 7 9 9 8 7 6
18 17 15 14 13 13 12 13 14 15 15 15 14 12 11 10 9 8 7 7 7 7 7 8 9 9 10 10 11 13 15 16 17 18 19 20 21 21 22 22 22 22 23 22 20 19 19 20 21 21 21 21 19 18 16 15 13 13 14 13 10 9 10 10 7 7 7 9 8 11 15 12 11 9 10 9 10 10 9 9 9 7 6 8 9 8 7 6
17 16 14 13 13 13 12 13 15 16 16 15 14 12 11 10 9 8 8 7 7 7 7 7 8 9 10 10 11 13 15 16 18 19 20 21 22 22 22 23 23 23 23 22 20 19 19 20 21 22 22 22 21 20 18 16 15 15 15 13 11 10 10 9 8 7 5 6 4 13 16 14 14 11 11 10 11 11 10 10 9 8 6 7 9 8 8 7
17 15 14 13 12 12 13 14 15 16 16 15 14 12 11 10 10 9 8 7 6 6 6 7 7 8 9 9 10 12 13 14 16 18 20 22 22 23 23 23 23 23 24 23 21 19 19 20 21 22 22 22 22 21 20 17 16 17 16 14 12 12 11 8 9 7 3 2 5 15 16 16 15 13 12 12 11 12 10 10 10 9 7 7 8 9 8 7
16 15 13 12 12 12 13 14 15 16 16 15 14 13 11 10 10 9 8 7 6 6 6 6 7 8 8 8 10 11 11 12 13 16 18 20 21 22 23 24 23 24 24 23 21 20 19 20 21 22 22 22 21 20 21 19 15 15 15 14 13 13 12 9 9 7 4 3 8 14 15 17 18 14 14 13 13 13 12 11 10 10 8 7 7 8 9 8
16 14 13 12 12 13 13 14 15 16 16 15 14 13 11 10 10 9 8 7 6 6 6 6 6 7 7 8 8 9 9 9 9 12 15 16 18 20 21 23 23 24 24 23 22 20 20 20 21 22 22 21 20 18 19 19 16 14 14 13 12 13 13 9 7 7 6 4 7 11 12 16 20 16 14 14 14 14 13 13 11 11 9 8 7 7 8 9
15 14 13 12 12 12 13 14 15 16 16 15 15 14 12 11 10 9 8 7 6 6 5 6 6 5 6 7 7 7 7 6 7 9 11 13 15 17 19 20 22 23 24 23 22 20 20 21 22 23 22 20 19 18 17 18 17 16 16 13 11 11 12 10 7 8 8 7 7 10 10 12 17 14 12 14 15 15 15 14 13 12 11 9 8 7 8 9
15 14 13 12 12 13 14 14 15 16 16 15 15 14 12 11 10 9 8 7 6 5 5 6 5 4 5 5 6 6 6 5 6 8 9 11 12 14 16 17 19 21 22 23 22 21 22 22 23 22 21 20 20 20 19 17 16 15 17 16 12 10 10 11 9 8 9 8 8 11 13 14 16 14 13 14 16 17 16 15 14 13 12 10 9 8 7 9
14 13 12 12 12 13 14 14 15 15 15 15 15 14 13 12 10 9 8 8 6 5 5 6 5 4 4 4 5 5 5 6 6 7 8 10 10 12 13 14 16 17 20 22 22 23 23 24 24 22 23 23 21 21 19 18 17 14 14 16 15 13 10 10 10 8 9 10 10 11 13 17 19 16 14 16 17 18 17 16 15 14 13 12 10 10 8 8
14 13 12 12 12 13 14 14 14 14 15 15 15 13 13 12 11 9 8 8 6 5 5 6 5 4 4 4 5 5 6 6 7 8 8 9 10 11 12 13 13 15 18 20 22 23 23 24 24 22 25 25 21 19 18 18 19 18 15 13 14 14 10 9 10 9 10 12 12 12 11 13 18 17 15 18 19 19 18 17 16 15 14 13 12 12 9 8
15 13 13 12 12 13 14 14 14 13 14 14 14 13 12 11 10 10 9 8 5 5 6 6 5 5 4 4 4 5 6 6 6 7 8 9 10 11 11 12 13 15 17 19 21 20 21 24 23 23 26 25 23 20 18 18 18 19 18 16 15 13 9 9 12 11 10 13 14 12 12 13 17 19 19 21 22 20 19 18 17 16 14 14 14 13 11 9
15 14 13 12 13 13 14 14 13 13 13 14 14 13 12 11 10 9 9 7 5 5 5 5 5 5 4 4 4 5 5 5 6 6 7 8 9 10 11 12 14 16 16 17 19 19 19 21 22 26 27 25 25 24 20 18 18 18 19 18 17 13 9 9 11 13 12 14 14 11 11 13 18 22 21 21 21 20 20 18 17 17 15 15 15 14 13 11
15 14 13 13 13 13 14 14 13 13 13 13 13 13 12 11 10 9 9 7 6 6 5 4 6 6 4 4 4 5 5 5 6 6 7 7 8 9 10 12 14 15 15 16 19 21 19 18 24 29 27 26 27 26 23 21 20 20 19 18 18 14 12 11 10 12 12 13 12 10 11 12 17 24 23 21 21 20 20 18 17 17 17 16 16 15 14 13
15 15 15 14 14 14 15 14 14 13 12 12 13 13 12 12 10 9 9 7 6 6 5 5 6 6 5 4 4 5 5 6 6 6 7 7 8 8 9 11 14 16 18 19 21 22 17 18 28 30 25 27 29 26 24 24 24 22 20 17 15 13 11 10 10 10 10 10 11 11 12 13 17 24 23 21 22 20 19 19 17 17 17 16 16 15 15 14
16 15 15 15 15 15 15 14 14 13 12 11 12 12 12 12 11 9 9 7 6 7 6 6 6 5 6 6 5 5 5 5 5 6 6 7 7 8 9 10 13 17 19 20 22 24 20 18 25 28 25 27 30 26 23 25 26 25 24 20 16 15 12 10 10 10 8 8 10 10 12 14 20 23 20 19 20 20 20 19 18 18 17 16 16 16 16 15
16 16 16 16 16 15 15 15 14 13 12 11 11 11 11 11 11 10 9 7 8 8 7 7 6 6 7 6 5 5 4 4 5 5 6 6 7 8 9 10 13 15 17 17 17 22 27 23 20 22 25 27 28 25 22 25 27 26 25 22 19 19 17 15 15 13 10 9 10 10 9 10 18 18 15 18 19 19 20 20 19 18 17 17 18 17 17 17
17 16 16 16 16 16 15 15 14 14 13 11 11 11 11 11 10 9 7 4 7 9 8 7 7 7 7 6 5 5 4 5 4 4 5 5 6 7 9 9 13 14 14 14 13 18 27 27 22 21 25 27 27 24 21 25 30 28 25 23 20 20 19 18 17 14 12 12 11 10 8 8 13 14 14 17 20 19 18 18 18 18 18 18 19 19 18 18
18 17 16 16 16 16 15 15 15 14 13 12 11 11 11 10 9 9 6 5 7 9 7 7 7 7 6 5 5 4 5 5 4 4 4 5 5 6 7 8 11 12 12 14 15 19 24 25 25 24 25 29 29 23 20 26 33 31 26 23 21 20 20 19 17 16 14 12 12 11 9 10 10 12 13 14 17 20 20 19 18 19 20 20 19 19 19 18
19 17 16 16 16 16 16 15 15 14 14 13 11 11 11 10 9 8 6 7 9 9 8 7 6 6 5 4 4 5 6 6 5 4 5 4 3 4 4 6 8 9 11 13 15 21 22 19 22 25 26 29 29 23 20 25 32 30 25 23 22 20 21 20 19 20 17 13 12 11 12 12 10 9 10 10 12 17 20 20 20 19 20 21 21 21 20 19
19 18 17 16 16 16 16 16 15 14 14 13 12 11 10 10 9 7 5 8 10 8 7 6 5 5 5 3 3 4 6 6 6 4 5 5 4 3 3 5 5 6 8 8 11 19 21 18 21 24 26 31 33 31 27 25 26 28 26 25 24 22 21 21 21 21 18 15 13 12 13 14 12 10 9 10 10 12 15 17 19 21 20 21 22 21 21 21
20 19 18 17 16 16 16 16 15 14 14 13 12 11 10 10 8 7 8 9 9 9 8 6 5 4 4 2 2 4 6 6 5 5 5 4 3 2 2 3 3 3 4 6 8 14 16 16 20 22 26 31 33 35 35 28 24 29 30 27 25 23 22 22 22 21 19 17 14 12 13 13 13 14 12 12 12 10 11 12 14 17 18 20 22 22 22 22
21 20 19 18 17 16 16 16 15 14 14 13 12 11 11 7 5 8 10 8 8 9 8 7 5 4 2 1 3 4 4 5 4 5 5 4 4 4 3 4 3 2 2 2 4 8 13 16 17 19 25 29 32 33 33 30 28 31 30 29 28 25 23 22 21 21 21 20 16 13 12 10 11 14 15 14 14 12 10 9 11 13 14 17 21 23 23 23
22 21 19 18 18 17 16 16 15 14 14 13 12 12 11 9 8 10 10 11 11 10 10 8 5 4 2 2 4 4 3 6 5 5 5 2 2 2 4 7 5 7 5 4 5 6 7 15 19 14 17 25 32 31 27 28 32 34 33 32 31 27 25 23 20 21 21 19 18 16 15 14 12 12 15 14 13 13 11 9 10 10 10 11 15 18 21 23
22 22 20 19 19 18 17 16 15 14 13 13 12 12 11 10 11 10 10 13 12 11 10 8 5 2 1 2 4 4 4 6 6 7 6 2 2 1 4 8 6 7 7 3 5 6 7 9 13 10 14 23 30 30 31 34 32 33 35 34 32 29 27 23 20 22 21 17 17 18 16 17 17 15 14 13 11 10 11 11 11 9 8 8 11 14 18 23
23 22 21 20 19 19 18 16 15 14 13 13 12 11 11 11 12 12 12 13 12 12 9 8 5 2 5 13 8 2 4 6 5 6 7 4 4 9 11 11 8 7 8 5 5 6 7 8 15 16 15 19 24 25 29 32 30 31 35 34 33 31 28 26 22 21 22 18 16 20 19 14 15 16 14 13 14 13 10 9 11 10 8 8 10 13 18 24
23 23 22 22 21 20 18 17 16 14 14 14 13 13 12 13 15 14 14 13 12 13 7 4 6 2 3 10 13 9 6 4 2 3 6 7 7 11 10 9 10 10 11 9 5 7 9 8 11 15 12 14 20 24 24 24 27 33 35 34 36 35 30 29 25 20 22 19 14 19 23 17 14 15 15 14 14 14 11 8 9 10 10 9 10 12 16 27
24 23 23 22 22 21 19 17 17 15 14 14 14 14 14 15 16 14 15 14 12 13 8 7 6 8 9 6 11 18 5 3 1 4 6 9 6 7 7 4 9 11 11 10 5 5 8 7 7 10 8 9 18 26 26 24 29 34 33 32 35 35 31 30 27 21 21 20 14 15 18 17 16 14 14 13 9 11 14 12 12 12 10 9 8 9 11 27
25 24 23 23 22 21 20 18 17 16 15 15 14 14 15 16 17 15 16 15 12 13 10 8 8 7 7 11 11 14 2 7 5 3 6 10 8 10 7 3 7 8 8 11 7 5 7 7 7 7 5 8 16 24 27 28 32 35 34 31 32 33 32 30 29 25 22 19 17 16 13 13 16 14 11 10 6 8 13 14 14 13 10 9 7 4 7 22
26 25 24 23 22 22 20 19 18 16 15 15 14 15 15 16 17 16 15 15 14 13 13 14 10 3 4 9 9 6 7 10 7 2 6 10 8 10 10 6 7 7 7 11 8 6 7 6 8 8 6 9 12 17 22 27 29 30 33 33 31 32 32 31 30 28 26 21 16 17 14 10 11 12 11 10 6 6 11 11 9 9 8 8 9 6 6 13
28 27 25 24 23 22 21 20 19 17 16 15 15 17 17 16 17 16 16 15 15 16 15 16 14 8 7 6 3 6 14 11 7 6 7 8 6 10 15 13 11 9 8 8 6 7 9 9 11 12 12 10 9 12 20 25 24 23 28 32 31 32 32 32 31 27 27 24 17 15 16 11 8 10 12 11 8 8 11 10 9 9 9 9 10 8 8 10
28 28 25 25 24 23 22 21 20 18 16 15 17 19 17 16 17 17 17 16 16 16 15 16 19 16 11 10 9 11 9 4 4 6 7 8 8 10 15 15 13 12 9 5 7 9 10 11 13 14 15 13 13 17 23 26 24 23 25 26 27 30 31 30 29 27 26 25 20 17 19 15 12 14 14 12 10 11 13 12 14 14 10 10 13 12 10 11
28 28 25 25 26 25 23 22 21 19 17 18 19 19 17 17 18 18 17 17 17 16 15 17 18 14 12 14 16 11 4 6 9 6 5 9 10 11 13 13 12 13 9 6 9 10 9 11 15 16 15 15 15 18 21 24 27 27 26 26 26 29 32 29 27 27 27 25 19 16 18 18 16 16 16 14 13 15 15 13 14 15 9 7 12 13 12 12
27 27 26 25 26 25 24 23 22 21 19 20 20 19 19 19 18 18 17 17 18 16 15 17 17 15 16 16 14 9 5 9 10 7 6 7 10 13 14 12 11 10 8 9 10 10 8 11 15 15 14 12 12 15 18 21 25 26 27 30 30 31 33 30 28 28 28 27 23 18 17 19 19 17 17 17 15 15 15 13 12 14 11 7 8 12 13 14
28 28 28 26 25 25 25 24 24 23 22 22 21 19 21 20 19 19 19 18 19 18 15 15 17 19 20 18 15 13 11 10 8 6 7 8 10 14 14 12 13 11 10 11 14 13 12 13 16 15 12 12 12 15 19 20 22 26 29 31 30 32 33 30 28 30 29 27 27 25 20 16 16 16 18 19 18 14 14 14 13 14 16 15 12 11 11 11
29 30 30 28 26 25 25 24 24 23 23 24 22 20 21 21 21 20 19 19 20 18 17 18 19 20 20 19 18 16 14 13 11 8 9 8 7 12 14 13 13 14 13 13 14 15 16 17 18 17 15 16 17 18 19 19 20 26 30 29 26 27 31 31 29 30 30 27 27 30 25 17 14 15 18 20 19 15 13 14 14 13 15 18 17 12 10 11
30 31 31 28 27 26 24 26 26 24 26 26 23 23 22 21 22 22 20 20 20 18 18 19 19 18 19 19 19 17 15 16 14 11 11 8 6 9 13 12 12 14 13 13 14 15 17 18 18 17 17 19 20 20 19 17 19 23 25 24 23 24 29 32 31 29 30 29 28 29 27 20 14 15 18 18 16 15 14 14 15 15 15 17 19 16 12 12
30 30 29 28 29 28 26 27 26 25 27 27 24 25 23 21 23 24 21 20 21 19 18 19 19 19 20 20 19 17 16 15 15 12 11 11 11 9 11 12 12 12 12 14 15 14 16 18 17 16 17 18 19 21 20 17 17 21 21 18 20 24 26 28 30 31 31 29 28 28 27 22 17 15 16 15 13 13 14 16 16 17 17 17 17 17 16 16
29 28 26 27 29 30 29 27 24 24 26 26 26 26 23 21 23 24 23 23 22 20 19 19 18 18 20 21 20 17 13 11 12 12 13 15 13 9 8 8 11 14 13 13 14 13 14 18 18 16 16 17 18 20 20 18 17 21 22 18 16 18 20 20 22 26 28 29 30 30 28 24 19 16 16 15 13 13 14 16 17 18 19 18 17 17 17 17
27 26 25 25 27 29 30 30 28 27 27 27 27 27 24 24 25 24 24 24 22 21 21 20 17 14 16 20 21 18 14 11 13 14 14 16 14 10 10 10 10 12 10 8 10 10 12 16 18 16 16 16 16 16 17 18 17 18 22 23 21 18 17 20 21 21 23 27 31 31 28 24 21 20 19 16 15 15 15 17 18 18 20 20 18 18 17 17
25 25 25 24 26 28 29 30 31 30 30 29 27 27 27 26 25 25 24 23 22 21 19 19 20 16 15 18 20 18 15 13 16 18 16 14 11 9 10 11 12 11 7 6 9 9 10 14 15 15 15 14 14 15 17 19 19 16 16 21 24 23 22 23 25 23 23 24 27 28 25 22 20 21 21 18 17 17 17 17 17 18 19 19 19 19 18 17
24 25 25 24 25 25 26 29 31 31 31 30 29 29 29 28 28 28 26 22 23 22 18 17 19 17 13 16 19 16 11 9 13 18 20 17 14 15 15 13 13 14 10 8 9 10 12 13 13 14 15 13 13 13 14 17 20 20 18 18 20 21 22 24 25 26 25 23 24 24 22 18 17 18 18 17 17 18 19 18 17 17 17 18 19 19 19 18
Wind_Direction
349 345 339 336 334 336 339 343 344 339 332 325 314 305 303 309 312 307 289 259 244 235 229 222 218 218 217 215 213 213 213 214 216 218 223 227 228 228 227 226 225 222 220 218 216 214 210 195 169 162 156 145 147 105 78 66 54 52 95 133 119 122 112 99 102 115 143 159 187 180 152 153 149 142 147 148 141 115 100 80 88 131 142 159 153 151 170 150
350 345 339 335 331 330 331 336 338 335 329 322 316 306 297 298 299 296 288 267 248 239 233 226 222 221 221 219 215 212 210 212 214 216 220 224 226 228 229 229 227 224 220 219 218 216 214 205 183 176 173 167 166 147 102 74 51 46 64 83 98 128 96 78 90 99 135 152 186 183 155 152 152 149 156 148 131 104 86 64 67 148 155 160 152 152 174 159
353 348 342 338 334 332 332 333 336 335 329 322 317 310 301 296 294 289 280 272 253 238 232 229 226 224 224 222 218 214 211 211 212 214 219 222 224 226 229 231 230 227 222 220 220 216 217 212 200 190 183 184 175 177 182 115 24 35 66 75 79 126 108 85 87 73 147 178 200 191 170 151 156 158 158 152 139 122 93 72 65 142 153 162 156 157 175 163
355 350 346 342 340 340 339 339 341 343 339 331 321 314 307 297 294 289 278 270 256 237 228 227 227 227 227 225 221 218 215 213 211 212 217 220 222 223 226 230 231 230 225 222 220 217 219 216 213 206 195 195 181 192 229 225 295 10 72 78 31 17 114 79 69 39 215 231 256 194 181 161 165 164 161 163 149 131 110 95 98 135 148 165 160 161 175 161
356 352 348 346 345 345 346 348 350 353 351 344 334 324 313 301 292 285 279 268 258 244 232 226 225 228 229 228 224 220 221 218 214 213 216 219 220 221 223 227 230 231 229 225 221 219 220 218 220 217 210 208 192 200 230 242 261 307 19 267 359 9 337 25 36 1 311 291 285 188 183 177 174 172 166 171 160 138 133 124 122 138 146 156 159 165 171 156
358 354 351 348 346 347 350 352 354 355 354 350 343 333 321 308 294 284 279 269 260 249 242 232 227 228 228 230 226 225 225 216 214 215 214 218 219 220 221 224 229 231 231 227 224 223 222 222 223 223 222 218 210 212 224 237 256 267 284 284 343 21 324 332 356 339 309 286 281 198 190 189 181 183 177 176 171 151 143 136 127 141 147 148 156 166 167 155
358 355 353 349 346 346 349 352 355 356 355 352 346 338 327 314 301 289 278 269 261 252 247 241 235 230 228 231 228 230 226 211 218 217 212 216 217 219 220 223 227 230 231 229 226 225 225 228 226 226 229 228 225 223 226 236 252 254 258 279 292 325 305 313 328 327 311 281 267 218 202 194 187 190 187 183 176 160 147 134 126 141 149 146 154 165 166 157
359 356 354 351 348 346 347 349 352 354 354 353 348 341 331 317 306 294 284 273 263 253 245 241 240 233 230 232 232 235 227 214 224 223 215 217 216 217 219 222 226 229 232 230 227 225 226 229 229 230 231 233 233 230 234 238 246 251 250 268 283 311 311 309 320 320 304 284 250 224 214 197 193 195 191 184 175 164 147 133 130 142 153 150 155 165 164 155
359 357 355 353 351 349 347 348 350 351 352 351 349 344 336 326 312 299 291 281 270 259 247 240 236 233 233 234 237 238 229 220 226 226 221 219 217 218 219 220 224 227 231 231 227 225 227 230 231 233 235 237 240 240 243 244 249 254 254 262 273 308 306 301 312 313 297 278 243 227 221 202 198 202 197 183 175 171 149 134 130 142 154 154 157 166 164 157
359 358 356 355 354 353 351 349 348 349 350 350 348 344 339 331 321 310 298 286 278 269 259 249 238 235 236 238 243 241 234 229 229 229 226 222 220 220 219 220 223 226 230 232 227 225 227 230 231 233 236 239 241 244 247 249 254 258 261 266 271 286 289 295 306 308 306 290 254 227 216 206 204 206 206 188 175 178 156 135 127 142 156 157 162 169 167 163
359 358 357 357 357 356 353 351 349 349 350 349 347 343 339 333 325 315 303 294 285 276 270 263 253 247 244 245 249 243 239 238 234 232 231 226 224 223 223 221 222 225 229 232 229 225 227 230 231 232 236 239 241 246 250 252 255 262 264 263 270 275 283 289 293 306 323 314 263 222 210 209 208 204 209 197 179 180 164 142 129 141 156 160 166 171 171 171
359 358 357 356 357 357 354 351 349 348 348 348 347 342 338 333 325 316 307 299 289 282 276 271 266 260 254 250 248 241 239 240 237 236 234 231 228 226 227 225 225 226 229 231 229 226 227 230 232 232 235 237 241 246 250 254 257 265 265 270 280 275 279 277 269 301 325 327 285 218 205 210 207 201 208 202 185 183 170 148 134 139 159 164 166 171 173 175
359 358 357 356 356 355 353 350 349 348 348 347 345 341 337 332 326 319 311 303 294 287 281 276 273 269 265 256 248 242 238 236 234 234 234 233 230 228 228 228 227 228 230 231 229 226 227 230 233 232 233 235 239 245 250 254 258 264 266 275 286 277 273 262 259 292 305 322 300 211 197 204 206 202 208 207 194 187 176 157 141 140 158 168 167 168 174 178
359 358 357 356 355 353 352 351 350 349 348 346 344 340 336 331 327 323 316 310 302 294 288 284 281 277 273 263 255 250 243 237 233 232 231 231 230 228 227 228 228 230 231 232 229 226 225 229 233 233 233 234 236 242 249 252 255 264 268 269 274 274 269 252 256 278 281 319 277 194 192 197 200 203 205 207 199 189 184 170 151 143 156 170 171 169 172 179
359 358 357 356 354 353 353 350 348 348 348 347 345 340 336 332 329 326 322 317 309 304 300 296 293 287 280 271 265 258 250 244 237 234 233 232 231 228 227 227 227 229 231 231 229 226 224 227 233 235 236 236 236 240 246 250 248 252 260 261 260 265 265 259 262 259 247 299 182 183 193 194 194 202 202 205 201 190 185 177 161 153 159 171 176 171 169 175
359 358 357 356 354 354 352 348 347 348 349 348 346 343 338 334 330 328 327 324 319 314 308 305 301 294 288 280 272 264 256 248 240 237 236 234 233 231 229 226 225 228 230 230 228 225 224 225 230 235 236 235 236 240 244 250 253 247 251 256 258 257 256 259 262 244 216 212 184 187 201 199 196 201 200 202 203 195 187 180 171 164 166 171 176 175 169 170
358 357 356 355 354 353 350 346 346 347 349 350 348 345 340 336 335 332 330 328 324 319 313 309 305 300 295 284 275 269 262 253 242 239 237 235 234 233 232 229 226 227 228 229 227 223 223 225 229 233 236 235 234 239 244 252 261 255 251 256 258 249 243 247 247 231 219 216 203 201 205 196 192 197 202 203 205 199 190 185 177 171 173 167 165 176 174 170
357 355 355 354 353 351 348 345 346 347 349 351 350 347 342 339 338 334 329 326 325 322 317 314 310 306 297 285 279 274 267 258 241 236 235 232 230 230 231 231 229 228 228 229 226 222 221 224 227 230 234 235 232 236 241 248 254 255 251 251 257 247 235 237 227 214 222 231 219 209 201 186 183 192 206 209 210 204 194 187 182 177 179 168 156 173 181 173
357 354 353 352 350 348 346 346 347 348 350 352 351 348 343 340 337 332 327 326 325 325 325 322 317 312 300 286 281 275 269 262 244 235 232 229 226 226 227 228 229 229 229 229 226 222 220 222 225 227 231 232 232 234 235 240 245 251 252 243 249 257 240 237 229 210 219 234 230 216 213 208 202 203 208 213 214 208 201 190 185 182 179 171 157 167 185 179
356 353 350 349 346 345 345 347 347 349 351 352 351 349 345 340 336 331 327 325 325 328 328 325 321 318 306 287 277 272 267 262 254 244 237 231 226 224 224 225 226 227 228 228 227 222 219 221 223 224 227 225 226 233 235 239 239 245 254 240 239 251 242 236 234 219 222 234 234 228 224 218 216 211 206 214 215 209 206 194 188 186 179 174 164 165 181 184
353 351 348 345 342 342 343 344 346 348 351 353 351 349 344 337 334 333 330 324 320 325 327 324 323 321 311 293 279 271 265 260 256 252 246 237 230 225 222 221 220 224 226 225 227 224 220 222 221 224 227 221 220 231 235 237 238 242 253 252 249 253 243 230 231 224 225 232 230 231 232 221 214 205 197 211 212 206 208 199 190 189 180 176 172 171 179 184
350 348 344 341 338 338 339 340 343 345 349 352 350 346 341 336 334 334 331 323 316 321 324 320 316 315 310 299 287 277 266 257 253 253 250 242 236 231 226 221 218 221 222 223 226 224 221 221 220 226 227 217 217 228 231 232 238 242 249 257 258 253 241 226 226 226 226 230 229 231 234 223 212 203 197 206 208 203 204 201 194 191 184 181 179 178 180 182
345 342 340 336 333 333 334 335 337 339 344 347 347 345 340 338 338 334 331 326 319 318 320 314 309 310 306 297 289 280 265 256 248 244 246 242 238 235 229 224 221 223 221 219 221 217 219 223 223 230 226 213 216 222 223 227 233 240 244 248 248 243 239 230 224 226 228 229 233 239 239 230 216 206 199 201 206 204 200 201 198 193 188 185 184 184 184 183
341 337 334 329 328 328 328 331 333 333 335 339 344 343 339 340 339 335 334 331 325 326 325 315 312 310 305 295 285 275 262 256 247 240 241 234 234 234 232 228 224 228 226 219 219 211 210 220 222 227 224 214 219 221 221 225 228 237 240 241 244 242 244 243 230 229 227 223 232 242 244 241 222 207 198 197 205 206 200 200 202 198 193 189 187 189 189 187
338 335 329 325 323 321 324 328 329 328 328 331 336 340 340 338 337 338 337 329 325 332 328 319 316 312 308 296 280 275 267 262 249 243 241 232 233 230 230 230 224 228 227 221 222 210 205 225 224 223 220 215 220 222 223 225 225 232 233 233 238 231 230 231 220 221 220 223 235 238 246 250 225 207 198 196 201 203 201 200 201 202 198 193 191 192 192 190
337 332 327 324 319 318 321 323 324 326 327 327 328 335 337 336 337 337 331 327 336 338 323 316 312 304 308 298 284 284 274 269 256 245 242 234 239 236 232 233 227 231 230 225 227 214 210 232 230 222 217 215 218 220 225 226 223 229 231 233 235 223 220 225 223 224 222 234 244 237 251 247 215 202 197 194 197 201 202 200 199 202 201 197 197 196 194 192
335 331 327 323 319 318 316 316 320 322 324 325 326 330 332 333 336 335 335 338 338 333 319 313 306 299 308 301 295 292 271 274 265 247 245 233 235 238 236 238 234 239 238 231 236 230 227 237 239 224 218 218 218 218 230 232 226 227 227 229 233 228 232 240 236 232 232 248 247 235 250 229 198 197 203 202 202 203 202 199 195 198 200 198 199 199 196 195
332 329 326 323 321 318 313 312 313 314 319 322 322 324 325 329 331 334 344 328 310 319 316 308 304 300 301 296 299 292 271 282 271 246 243 229 232 239 237 242 239 243 245 230 229 240 237 236 237 226 218 222 218 213 228 232 224 223 220 222 229 226 230 240 238 231 235 250 245 232 234 207 195 207 212 209 209 207 204 201 195 195 199 199 200 203 200 198
329 327 324 322 321 318 315 311 307 308 311 313 318 318 318 323 323 326 332 296 296 313 310 302 301 299 295 295 304 296 279 281 269 250 239 221 227 242 244 252 249 249 250 236 228 238 240 234 234 228 220 222 217 212 230 230 219 218 219 225 231 225 223 232 236 230 231 238 231 221 217 208 212 221 215 211 210 206 205 203 197 193 198 201 201 204 204 202
325 323 321 318 318 318 316 310 307 306 304 305 308 308 312 315 315 324 323 300 303 308 302 298 296 293 290 294 306 297 286 282 272 245 222 215 221 244 259 258 257 259 253 245 241 245 245 239 236 230 222 221 214 210 230 229 217 217 221 226 229 226 223 225 230 230 234 240 229 220 221 218 220 228 226 216 200 199 204 206 204 197 196 202 203 205 208 206
321 319 317 315 315 316 315 312 309 305 302 301 299 300 306 304 310 326 305 291 299 299 298 295 287 286 285 292 296 288 287 283 278 251 216 209 207 227 267 259 260 271 273 275 263 257 254 243 237 233 225 222 217 218 233 234 219 218 223 224 227 228 226 226 229 228 232 239 235 229 227 222 222 232 238 223 201 196 203 207 209 206 202 204 204 205 209 211
317 316 314 311 311 311 313 312 310 306 302 299 295 293 295 298 307 304 285 289 294 288 292 293 282 266 264 283 281 278 285 277 268 253 226 205 215 245 259 262 273 284 312 321 292 283 280 255 238 234 227 224 223 227 237 237 223 221 223 223 227 229 224 226 229 227 224 226 230 229 224 222 226 231 234 223 212 202 198 200 201 202 205 208 208 208 209 212
314 312 310 308 308 308 309 311 310 307 302 299 295 288 288 293 286 281 283 285 279 279 287 286 272 246 227 325 297 271 270 274 268 246 233 214 233 251 238 247 244 197 175 168 232 299 308 287 269 250 237 229 225 227 234 236 226 223 226 224 226 230 226 225 229 227 222 220 220 214 212 221 227 226 224 219 213 206 196 193 192 192 198 206 208 209 209 211
311 309 307 304 304 304 305 307 308 306 302 298 291 284 282 275 265 275 280 273 270 278 284 279 271 248 190 173 262 270 261 259 255 236 228 241 279 289 291 281 235 196 195 171 207 245 265 284 292 274 246 234 225 222 227 233 227 222 225 224 223 228 226 225 228 222 216 219 219 206 205 222 229 225 221 214 209 207 202 202 203 198 200 208 211 212 213 213
307 305 303 301 301 301 302 302 304 304 300 295 289 283 277 272 273 272 268 271 274 273 273 277 276 250 280 281 245 256 271 245 240 224 184 120 354 260 236 256 234 205 212 225 271 244 194 251 268 239 233 233 223 221 223 226 227 225 224 223 223 227 225 224 227 216 209 215 216 204 203 219 224 222 218 214 214 210 208 215 219 217 220 221 223 227 226 220
303 301 299 298 297 297 298 298 299 298 296 293 286 277 269 265 269 263 262 271 272 267 266 282 296 78 356 317 297 248 263 253 249 227 191 167 211 213 208 220 236 224 208 215 273 249 197 233 248 233 238 238 222 220 226 227 228 229 225 221 223 226 221 219 222 214 211 215 214 209 209 209 209 213 218 224 224 214 210 224 226 233 249 242 238 243 236 224
300 297 296 294 293 293 294 294 293 292 291 289 279 273 271 268 266 263 266 267 262 267 253 245 289 223 178 302 298 301 317 303 295 163 214 250 219 215 228 229 238 230 214 223 245 237 213 215 252 248 244 251 231 216 217 224 226 227 225 222 222 223 218 217 220 214 212 220 221 211 211 207 200 208 216 215 213 205 202 219 226 235 256 258 263 270 239 215
296 294 293 291 290 289 290 290 288 286 285 285 278 274 273 270 268 263 267 265 257 263 236 172 245 236 152 129 277 290 339 95 247 140 196 261 249 237 257 233 237 234 225 231 218 224 222 200 253 258 221 241 241 220 214 222 226 224 224 223 221 220 220 221 222 217 213 221 222 209 210 211 203 206 213 207 203 200 199 211 222 227 244 255 279 295 228 200
293 292 290 288 287 287 287 286 283 281 280 281 278 274 268 266 269 265 266 267 257 252 235 201 225 227 152 150 214 270 334 138 239 262 211 241 253 258 257 200 240 244 234 242 227 228 241 214 239 255 213 225 229 217 215 224 230 227 225 227 223 219 222 224 221 220 221 220 215 215 218 209 198 195 196 195 198 200 200 211 224 224 230 239 252 273 192 186
291 289 287 285 284 283 283 281 280 279 276 275 273 272 268 265 268 267 264 265 257 245 234 231 225 176 237 219 185 230 233 182 181 202 231 242 245 258 262 242 246 247 241 253 255 259 255 221 216 232 251 248 225 217 219 223 229 229 226 228 226 222 226 228 224 224 228 223 216 228 233 213 193 190 192 201 212 214 211 219 234 233 231 234 238 234 188 182
287 285 284 282 280 279 279 279 277 274 271 269 266 266 268 266 267 266 262 261 257 251 245 240 229 204 223 226 134 237 231 204 185 185 216 253 263 272 271 259 249 249 249 257 271 270 250 232 225 231 244 235 203 218 229 223 222 223 222 223 224 224 226 229 229 227 228 224 220 232 235 224 208 195 197 211 221 227 228 231 239 239 237 240 241 237 224 211
284 283 281 278 276 275 275 274 272 272 268 262 259 262 265 264 263 263 260 258 258 255 252 246 242 238 220 181 189 234 225 193 225 187 181 231 247 260 261 250 242 245 250 256 253 246 243 243 239 237 244 236 211 219 227 224 222 224 224 220 219 224 225 226 229 228 228 227 225 230 235 238 231 208 197 202 214 226 234 237 237 235 237 242 239 239 240 238
283 281 278 275 273 271 271 270 269 268 261 255 258 261 262 259 258 260 258 256 258 255 249 246 242 243 243 216 210 226 195 172 211 205 195 229 239 249 249 241 241 246 245 246 248 244 245 250 244 239 245 245 235 233 233 230 228 228 228 222 218 221 222 223 226 227 227 227 225 228 234 242 239 217 200 200 212 225 231 237 240 237 239 242 239 243 246 245
281 280 278 273 271 269 267 265 264 262 257 255 257 257 257 257 255 256 256 253 255 255 249 250 242 232 243 238 219 217 195 185 214 238 230 232 247 253 251 245 243 246 242 239 247 249 245 249 249 243 242 243 241 238 235 230 226 227 229 226 223 224 224 223 226 229 229 226 224 225 231 241 240 222 209 208 212 219 225 231 238 242 249 251 244 246 244 243
278 277 275 272 270 267 263 261 259 258 256 254 252 250 252 255 253 252 253 251 252 254 246 246 245 238 241 240 226 227 224 204 213 238 223 223 247 255 254 249 242 246 254 251 249 247 244 252 254 244 238 245 244 237 234 228 221 222 226 225 225 228 229 227 227 231 230 227 227 228 231 240 237 221 215 217 216 217 221 226 233 245 253 252 250 253 252 253
276 272 270 270 267 264 261 258 255 253 252 252 250 247 247 251 253 250 250 249 250 252 247 244 247 243 242 241 233 233 237 224 211 221 230 228 254 265 258 250 247 253 259 257 255 254 252 256 259 254 247 247 248 243 238 230 221 224 229 226 222 224 227 227 228 231 230 227 229 231 232 240 240 226 219 218 218 220 223 226 230 239 248 250 251 256 263 266
273 269 267 265 262 260 256 254 251 247 247 249 248 246 243 245 250 250 247 247 249 248 246 248 250 243 239 241 237 231 238 235 222 229 243 225 220 258 260 254 256 259 262 262 261 260 257 256 256 255 250 248 252 252 244 235 227 228 233 232 225 225 230 231 230 230 230 228 229 230 230 233 236 226 216 214 215 218 224 228 230 233 241 248 252 256 261 264
273 269 266 261 256 253 249 249 250 246 244 247 246 245 242 238 244 249 247 244 246 247 247 248 246 240 237 240 238 233 235 234 227 237 248 227 215 244 271 277 273 264 262 268 264 255 256 260 257 254 253 250 252 252 247 243 238 234 236 234 224 221 225 227 226 225 227 229 229 230 228 229 231 225 220 220 219 218 226 233 234 235 238 243 251 258 262 265
273 270 265 258 254 251 248 247 248 246 243 243 241 241 240 235 238 245 246 244 245 245 245 246 245 241 240 241 238 234 234 229 224 239 250 235 224 233 251 269 288 280 265 266 267 253 247 259 261 257 259 255 249 248 244 238 236 233 229 224 220 217 216 219 222 222 224 229 233 235 235 237 239 235 231 229 227 229 233 237 239 238 238 241 247 256 263 267
273 270 266 260 254 251 247 244 243 242 241 241 240 239 238 234 234 239 242 243 243 244 245 243 240 235 236 242 242 236 236 230 220 233 249 240 232 241 239 230 254 270 261 258 266 247 232 250 259 259 262 260 255 254 246 235 230 224 217 220 230 236 232 231 231 226 223 230 236 238 238 242 245 244 240 234 232 238 241 239 240 240 239 241 245 251 260 267
272 270 268 262 255 251 247 244 242 241 241 242 242 239 237 234 233 233 237 238 233 235 241 240 238 237 235 242 244 237 240 241 226 229 243 237 221 233 243 229 225 233 237 254 263 249 230 241 254 261 263 260 260 260 252 244 241 234 220 220 227 232 232 234 236 233 229 232 240 243 242 242 244 247 246 239 234 239 243 242 241 240 240 241 243 248 254 262
273 271 268 263 257 253 247 243 241 239 239 240 239 238 236 234 233 232 235 238 229 227 233 234 233 234 231 241 245 234 231 246 234 234 245 243 231 232 238 238 234 233 238 250 257 253 243 239 246 256 257 256 262 264 254 247 247 246 240 231 227 230 233 234 234 235 233 231 237 247 250 243 239 244 246 241 237 239 242 244 243 241 240 241 243 246 249 255
Height
5895 5894 5894 5893 5892 5891 5890 5889 5888 5887 5886 5886 5886 5885 5885 5885 5885 5884 5884 5884 5884 5884 5885 5885 5885 5886 5886 5887 5888 5889 5889 5890 5891 5892 5892 5893 5895 5896 5896 5897 5898 5900 5901 5901 5902 5902 5902 5903 5903 5903 5903 5903 5902 5902 5902 5902 5902 5902 5902 5902 5901 5899 5899 5899 5899 5900 5899 5899 5899 5900 5900 5900 5900 5901 5901 5901 5901 5902 5902 5901 5901 5900 5900 5900 5899 5899 5899 5899
5895 5894 5893 5892 5891 5890 5890 5889 5887 5886 5885 5885 5884 5884 5884 5884 5884 5884 5883 5883 5883 5883 5883 5884 5884 5885 5885 5886 5887 5888 5888 5889 5890 5891 5891 5892 5894 5895 5896 5897 5898 5899 5900 5901 5901 5902 5902 5903 5903 5903 5903 5903 5903 5902 5903 5903 5902 5902 5902 5902 5901 5900 5901 5900 5900 5900 5899 5899 5900 5900 5900 5900 5901 5901 5901 5902 5902 5902 5902 5902 5902 5901 5901 5900 5900 5900 5900 5900
5895 5894 5893 5892 5891 5890 5889 5888 5887 5885 5885 5884 5883 5883 5883 5883 5883 5883 5882 5882 5882 5882 5882 5883 5883 5883 5884 5885 5886 5887 5887 5888 5889 5889 5890 5891 5892 5894 5895 5896 5897 5898 5899 5900 5901 5901 5902 5902 5903 5903 5903 5903 5903 5903 5903 5903 5903 5903 5902 5901 5901 5901 5901 5901 5900 5900 5900 5900 5900 5900 5901 5901 5901 5901 5902 5902 5903 5903 5903 5903 5902 5902 5901 5901 5901 5901 5901 5900
5894 5893 5892 5891 5890 5889 5888 5887 5886 5885 5884 5883 5882 5882 5882 5882 5882 5882 5881 5881 5881 5881 5881 5882 5882 5882 5883 5884 5885 5885 5886 5886 5887 5888 5889 5890 5891 5892 5893 5894 5895 5896 5898 5899 5900 5901 5901 5902 5902 5902 5903 5903 5903 5903 5903 5903 5903 5903 5903 5902 5902 5902 5901 5901 5900 5900 5900 5900 5900 5900 5901 5901 5901 5902 5902 5903 5903 5904 5904 5904 5903 5903 5902 5902 5902 5902 5902 5901
5894 5893 5892 5891 5890 5889 5888 5887 5885 5884 5883 5882 5882 5881 5881 5881 5880 5880 5880 5880 5880 5880 5880 5881 5881 5881 5882 5882 5883 5884 5884 5885 5886 5887 5888 5889 5890 5891 5892 5893 5893 5895 5897 5898 5900 5900 5901 5902 5902 5902 5903 5903 5903 5903 5903 5903 5902 5903 5904 5902 5901 5902 5901 5901 5900 5900 5900 5900 5900 5901 5901 5901 5901 5902 5903 5903 5904 5904 5904 5904 5904 5903 5903 5903 5904 5903 5903 5902
5894 5892 5891 5890 5889 5888 5888 5886 5885 5884 5883 5882 5881 5881 5880 5880 5879 5879 5879 5879 5879 5879 5879 5880 5880 5880 5881 5881 5882 5882 5883 5884 5885 5886 5887 5888 5888 5890 5891 5891 5892 5893 5895 5897 5899 5900 5901 5901 5901 5902 5902 5903 5903 5903 5903 5903 5902 5902 5903 5902 5901 5902 5901 5900 5901 5900 5900 5900 5900 5901 5901 5901 5902 5902 5903 5904 5904 5904 5904 5905 5904 5904 5904 5904 5905 5904 5904 5904
5893 5892 5891 5890 5889 5888 5887 5886 5885 5884 5883 5882 5881 5880 5879 5879 5878 5878 5878 5878 5878 5878 5878 5878 5879 5879 5879 5880 5880 5880 5882 5883 5884 5884 5886 5886 5887 5888 5889 5890 5891 5892 5893 5895 5898 5899 5900 5900 5901 5901 5901 5902 5902 5903 5903 5902 5902 5902 5902 5901 5901 5902 5901 5901 5901 5900 5900 5900 5901 5901 5901 5902 5902 5902 5903 5904 5904 5905 5905 5905 5905 5905 5905 5905 5905 5905 5905 5905
5893 5892 5890 5889 5889 5888 5887 5886 5885 5883 5882 5881 5880 5879 5879 5878 5878 5877 5877 5877 5877 5877 5877 5877 5878 5878 5878 5878 5879 5879 5880 5882 5882 5883 5884 5885 5886 5887 5888 5889 5889 5890 5891 5893 5896 5898 5899 5899 5900 5900 5901 5901 5901 5902 5902 5902 5901 5901 5901 5901 5901 5901 5902 5901 5900 5900 5900 5900 5901 5901 5901 5902 5902 5903 5903 5904 5905 5905 5906 5906 5906 5905 5905 5905 5906 5906 5906 5906
5892 5891 5890 5889 5888 5887 5886 5885 5884 5883 5882 5881 5880 5879 5878 5877 5877 5876 5876 5876 5876 5876 5876 5876 5876 5877 5877 5877 5877 5877 5879 5880 5880 5881 5883 5884 5885 5885 5886 5887 5888 5889 5890 5891 5894 5896 5897 5898 5899 5899 5900 5900 5900 5901 5901 5901 5901 5901 5901 5900 5901 5901 5901 5900 5900 5900 5900 5900 5901 5901 5902 5902 5902 5903 5903 5904 5905 5906 5906 5906 5906 5906 5906 5906 5906 5907 5907 5907
5892 5891 5890 5889 5888 5887 5886 5885 5884 5883 5882 5880 5879 5878 5877 5876 5876 5875 5875 5875 5875 5875 5875 5875 5875 5875 5875 5876 5876 5876 5878 5878 5879 5880 5881 5882 5883 5884 5885 5886 5887 5888 5888 5890 5892 5894 5895 5896 5897 5898 5899 5899 5900 5900 5900 5900 5900 5901 5901 5900 5901 5902 5901 5900 5899 5899 5899 5899 5900 5901 5902 5902 5902 5903 5904 5904 5905 5906 5906 5906 5907 5907 5907 5907 5907 5907 5908 5908
5891 5890 5889 5888 5887 5886 5886 5884 5883 5882 5881 5880 5879 5878 5877 5876 5875 5875 5874 5874 5874 5874 5874 5873 5874 5874 5874 5874 5875 5876 5876 5877 5877 5878 5879 5881 5882 5883 5884 5885 5885 5886 5887 5888 5891 5893 5894 5895 5896 5897 5897 5898 5899 5899 5899 5899 5900 5901 5901 5900 5901 5902 5901 5900 5899 5899 5899 5899 5900 5901 5902 5902 5902 5903 5904 5905 5906 5907 5907 5907 5907 5907 5907 5907 5908 5908 5908 5909
5891 5890 5889 5888 5887 5886 5885 5884 5883 5882 5881 5879 5878 5877 5876 5875 5874 5874 5873 5873 5873 5872 5872 5872 5872 5872 5872 5873 5873 5874 5875 5875 5876 5877 5877 5879 5880 5881 5882 5883 5884 5885 5886 5887 5889 5892 5893 5893 5894 5895 5896 5897 5897 5898 5898 5899 5900 5901 5900 5900 5902 5903 5901 5899 5899 5899 5898 5898 5899 5901 5902 5902 5902 5903 5904 5905 5906 5907 5907 5907 5907 5908 5908 5908 5908 5909 5909 5909
5891 5890 5889 5887 5887 5886 5885 5884 5883 5881 5880 5879 5878 5877 5876 5875 5874 5873 5873 5872 5872 5871 5871 5871 5871 5871 5871 5871 5872 5872 5872 5873 5874 5874 5875 5876 5878 5879 5880 5882 5883 5884 5885 5886 5888 5890 5891 5892 5893 5894 5894 5895 5896 5897 5897 5898 5899 5900 5899 5900 5901 5902 5900 5899 5899 5899 5899 5898 5898 5900 5901 5901 5902 5903 5904 5905 5906 5907 5908 5908 5908 5908 5909 5909 5909 5909 5910 5910
5891 5890 5888 5887 5886 5886 5885 5884 5882 5881 5880 5879 5877 5876 5875 5874 5873 5872 5872 5871 5871 5870 5870 5870 5869 5869 5869 5869 5870 5870 5870 5871 5872 5872 5873 5874 5875 5877 5878 5880 5881 5882 5883 5885 5887 5889 5890 5891 5891 5892 5893 5894 5895 5896 5897 5898 5899 5899 5899 5899 5900 5900 5899 5899 5899 5899 5899 5898 5897 5898 5900 5901 5901 5903 5904 5905 5906 5907 5908 5908 5908 5909 5909 5909 5909 5909 5910 5910
5891 5890 5888 5887 5886 5885 5884 5883 5882 5881 5879 5878 5877 5875 5874 5873 5873 5872 5871 5870 5870 5869 5869 5868 5868 5868 5868 5868 5868 5868 5869 5869 5870 5870 5871 5872 5873 5874 5876 5878 5879 5880 5881 5883 5885 5887 5889 5889 5889 5890 5891 5893 5894 5895 5896 5897 5898 5898 5897 5897 5898 5898 5897 5898 5898 5898 5898 5898 5897 5898 5899 5900 5901 5902 5903 5905 5906 5907 5908 5908 5909 5909 5910 5910 5910 5910 5910 5911
5891 5889 5888 5887 5886 5885 5884 5883 5882 5881 5879 5878 5876 5875 5874 5873 5872 5871 5870 5869 5869 5868 5868 5867 5867 5867 5867 5867 5866 5867 5867 5867 5868 5869 5869 5870 5871 5873 5874 5875 5877 5878 5879 5881 5884 5886 5887 5888 5888 5889 5890 5891 5893 5895 5895 5895 5896 5896 5895 5896 5896 5896 5896 5896 5897 5898 5898 5898 5897 5898 5899 5900 5900 5901 5903 5904 5906 5907 5908 5908 5909 5910 5910 5910 5910 5910 5910 5911
5890 5889 5888 5887 5886 5885 5884 5883 5882 5880 5879 5877 5876 5874 5873 5872 5871 5870 5870 5869 5868 5868 5867 5867 5867 5866 5866 5866 5865 5865 5866 5866 5867 5867 5868 5869 5870 5871 5872 5874 5875 5876 5877 5879 5882 5884 5885 5886 5887 5887 5888 5890 5892 5893 5894 5894 5895 5894 5894 5895 5895 5895 5895 5895 5897 5899 5898 5898 5898 5898 5898 5899 5899 5900 5902 5904 5905 5906 5907 5908 5909 5910 5910 5911 5911 5911 5911 5911
5890 5889 5888 5887 5886 5885 5884 5882 5881 5880 5878 5877 5875 5874 5873 5872 5871 5870 5869 5868 5868 5867 5867 5866 5866 5866 5865 5865 5865 5865 5865 5865 5866 5866 5867 5868 5869 5870 5871 5872 5874 5875 5876 5878 5880 5882 5884 5885 5885 5886 5887 5889 5891 5892 5892 5893 5894 5893 5893 5895 5895 5894 5894 5894 5896 5898 5898 5898 5898 5898 5898 5898 5899 5900 5902 5904 5905 5906 5907 5908 5909 5909 5910 5911 5911 5911 5911 5912
5890 5888 5887 5886 5886 5885 5883 5882 5881 5879 5878 5877 5875 5874 5873 5872 5871 5870 5869 5868 5867 5867 5866 5866 5865 5865 5865 5864 5864 5864 5864 5865 5865 5865 5866 5866 5867 5868 5869 5871 5872 5874 5875 5876 5878 5880 5882 5883 5883 5885 5887 5888 5889 5890 5891 5892 5893 5893 5893 5894 5895 5893 5893 5894 5896 5898 5898 5898 5898 5899 5899 5898 5899 5901 5903 5904 5905 5905 5907 5907 5908 5909 5910 5911 5911 5912 5912 5912
5889 5888 5887 5886 5885 5884 5883 5882 5881 5879 5878 5876 5875 5874 5872 5871 5870 5869 5868 5868 5867 5866 5866 5865 5865 5864 5864 5864 5863 5863 5864 5864 5865 5865 5865 5866 5866 5867 5868 5870 5871 5873 5874 5875 5876 5878 5879 5881 5882 5884 5885 5886 5887 5888 5890 5892 5892 5893 5893 5893 5893 5892 5893 5893 5894 5896 5897 5897 5897 5898 5898 5898 5899 5901 5903 5904 5904 5905 5906 5907 5908 5908 5909 5910 5911 5911 5912 5912
5889 5888 5887 5886 5885 5884 5883 5882 5880 5879 5878 5876 5875 5874 5872 5871 5870 5869 5868 5867 5867 5866 5865 5865 5864 5864 5863 5863 5863 5863 5863 5864 5864 5864 5865 5865 5866 5866 5867 5868 5870 5871 5872 5873 5874 5876 5878 5879 5880 5883 5882 5884 5886 5888 5889 5891 5891 5891 5891 5892 5892 5891 5892 5893 5893 5894 5896 5896 5896 5896 5897 5897 5899 5901 5903 5904 5904 5905 5905 5906 5907 5908 5909 5910 5911 5911 5912 5912
5888 5887 5886 5885 5884 5883 5882 5881 5880 5879 5878 5877 5875 5874 5872 5871 5870 5869 5868 5867 5866 5866 5865 5864 5864 5863 5863 5862 5862 5862 5862 5863 5863 5863 5864 5864 5865 5866 5866 5868 5869 5869 5870 5871 5872 5875 5877 5877 5880 5881 5879 5882 5885 5886 5888 5889 5889 5889 5889 5890 5890 5889 5891 5893 5892 5892 5893 5894 5894 5895 5895 5896 5898 5900 5901 5902 5903 5904 5905 5905 5906 5907 5908 5909 5910 5911 5911 5912
5887 5886 5885 5884 5884 5883 5882 5881 5880 5879 5878 5876 5875 5874 5872 5871 5870 5868 5868 5867 5866 5865 5864 5864 5863 5863 5862 5862 5862 5862 5862 5862 5862 5863 5863 5863 5864 5865 5866 5867 5867 5868 5869 5870 5871 5873 5876 5877 5878 5876 5876 5880 5883 5884 5886 5888 5888 5887 5887 5888 5888 5888 5890 5892 5891 5891 5892 5892 5893 5894 5894 5895 5897 5898 5900 5901 5903 5903 5903 5904 5905 5906 5907 5909 5910 5911 5911 5912
5887 5885 5885 5884 5883 5882 5881 5880 5879 5878 5877 5876 5875 5873 5872 5871 5869 5868 5867 5866 5866 5865 5864 5863 5863 5862 5862 5862 5861 5861 5861 5861 5861 5862 5862 5862 5863 5863 5864 5865 5866 5867 5868 5869 5869 5871 5873 5874 5872 5871 5875 5879 5880 5882 5884 5886 5886 5885 5886 5886 5886 5888 5889 5890 5891 5891 5891 5891 5892 5892 5892 5893 5895 5897 5898 5899 5901 5903 5903 5904 5905 5905 5907 5908 5909 5910 5911 5912
5886 5885 5884 5883 5882 5881 5880 5879 5878 5877 5876 5876 5874 5873 5872 5870 5869 5868 5867 5866 5865 5864 5863 5863 5862 5861 5861 5861 5861 5861 5860 5860 5861 5861 5861 5862 5862 5862 5863 5864 5865 5865 5866 5867 5867 5869 5871 5870 5868 5870 5874 5877 5878 5881 5883 5883 5883 5883 5884 5885 5885 5888 5888 5889 5890 5890 5890 5890 5891 5891 5891 5892 5893 5895 5897 5897 5899 5901 5902 5903 5904 5905 5906 5907 5909 5910 5911 5912
5885 5884 5882 5882 5881 5880 5879 5878 5877 5876 5876 5875 5874 5873 5871 5870 5869 5868 5866 5865 5864 5864 5863 5862 5862 5861 5861 5860 5860 5860 5860 5860 5860 5860 5860 5861 5861 5861 5862 5862 5863 5863 5863 5865 5866 5868 5868 5867 5867 5870 5872 5874 5876 5879 5880 5880 5882 5882 5883 5885 5886 5887 5888 5889 5889 5889 5889 5890 5890 5890 5889 5890 5891 5893 5895 5896 5897 5900 5901 5902 5903 5904 5905 5906 5908 5909 5910 5911
5884 5882 5881 5880 5879 5879 5878 5877 5876 5875 5875 5874 5873 5872 5871 5870 5868 5867 5866 5865 5864 5864 5863 5862 5861 5860 5860 5859 5860 5859 5859 5859 5859 5859 5859 5860 5860 5860 5861 5861 5862 5862 5862 5864 5866 5865 5864 5865 5868 5869 5871 5872 5875 5878 5879 5879 5879 5880 5881 5884 5885 5886 5887 5888 5888 5888 5888 5888 5889 5889 5888 5888 5890 5893 5894 5894 5896 5898 5900 5901 5902 5903 5904 5905 5907 5908 5909 5911
5883 5881 5880 5879 5878 5877 5876 5875 5875 5874 5874 5873 5872 5871 5870 5869 5868 5867 5866 5866 5865 5864 5863 5862 5861 5860 5859 5859 5859 5859 5859 5858 5858 5859 5859 5859 5859 5859 5860 5860 5860 5861 5861 5863 5864 5863 5863 5865 5867 5868 5870 5871 5873 5878 5877 5875 5876 5877 5879 5882 5883 5885 5886 5886 5886 5887 5888 5887 5888 5888 5889 5889 5891 5892 5892 5893 5894 5896 5898 5900 5901 5902 5903 5904 5906 5907 5909 5910
5881 5880 5879 5878 5877 5876 5875 5874 5873 5873 5872 5872 5871 5871 5870 5869 5868 5866 5866 5866 5865 5863 5862 5861 5860 5859 5859 5858 5858 5858 5858 5858 5858 5858 5858 5858 5859 5859 5859 5859 5859 5860 5860 5861 5862 5861 5862 5864 5865 5866 5868 5869 5873 5877 5874 5871 5873 5876 5879 5881 5882 5884 5885 5885 5886 5887 5888 5887 5887 5888 5889 5890 5891 5891 5891 5892 5893 5895 5896 5897 5899 5900 5902 5903 5904 5906 5908 5909
5880 5879 5878 5876 5875 5874 5873 5872 5872 5871 5871 5870 5870 5870 5869 5868 5867 5866 5866 5865 5864 5863 5862 5861 5860 5859 5858 5858 5857 5857 5857 5857 5858 5858 5858 5858 5858 5858 5858 5858 5859 5859 5859 5860 5860 5860 5860 5862 5864 5865 5867 5867 5870 5872 5869 5869 5873 5876 5879 5880 5881 5882 5883 5884 5885 5886 5886 5887 5887 5888 5888 5889 5890 5891 5891 5891 5892 5893 5894 5895 5897 5898 5900 5902 5903 5905 5906 5908
5878 5877 5876 5875 5874 5873 5872 5871 5870 5870 5869 5869 5869 5868 5868 5867 5866 5866 5866 5865 5863 5862 5861 5860 5859 5859 5858 5857 5857 5857 5857 5857 5857 5857 5857 5857 5857 5858 5858 5858 5858 5858 5858 5859 5859 5858 5859 5861 5862 5862 5864 5865 5866 5866 5865 5869 5874 5876 5877 5879 5879 5880 5882 5883 5884 5884 5884 5886 5887 5887 5887 5889 5890 5890 5891 5892 5892 5892 5893 5894 5895 5896 5898 5900 5902 5904 5905 5906
5876 5875 5874 5873 5872 5871 5871 5870 5869 5868 5868 5867 5867 5867 5867 5866 5865 5865 5864 5863 5862 5861 5860 5859 5859 5858 5858 5857 5857 5857 5856 5856 5856 5856 5856 5856 5857 5857 5857 5858 5858 5858 5859 5861 5861 5859 5857 5858 5860 5861 5861 5862 5864 5865 5866 5870 5874 5874 5875 5877 5878 5879 5881 5882 5883 5884 5884 5884 5886 5887 5887 5888 5888 5889 5891 5892 5892 5891 5892 5893 5893 5895 5896 5898 5900 5902 5904 5905
5874 5873 5872 5872 5871 5870 5869 5868 5867 5867 5866 5866 5866 5865 5865 5865 5865 5864 5863 5862 5861 5860 5859 5859 5858 5858 5857 5857 5857 5856 5856 5856 5855 5856 5856 5856 5856 5856 5856 5857 5858 5858 5860 5863 5864 5863 5860 5858 5858 5859 5859 5860 5862 5864 5866 5868 5871 5872 5874 5875 5877 5878 5879 5880 5881 5882 5882 5883 5885 5886 5886 5887 5887 5888 5890 5891 5891 5891 5891 5891 5892 5894 5895 5897 5898 5900 5902 5904
5872 5871 5870 5870 5869 5868 5867 5867 5866 5865 5864 5864 5864 5864 5864 5864 5863 5863 5862 5861 5859 5859 5858 5858 5858 5857 5857 5857 5857 5856 5856 5856 5855 5855 5856 5856 5856 5858 5858 5857 5856 5857 5858 5860 5862 5863 5864 5862 5858 5857 5858 5857 5859 5863 5865 5866 5867 5869 5871 5872 5875 5876 5877 5879 5879 5880 5880 5881 5883 5884 5884 5884 5885 5887 5888 5889 5889 5889 5889 5890 5891 5893 5894 5896 5897 5898 5900 5902
5870 5869 5868 5867 5867 5866 5866 5865 5864 5864 5863 5862 5862 5862 5862 5862 5861 5861 5860 5859 5858 5858 5857 5857 5857 5856 5856 5856 5856 5856 5856 5855 5855 5855 5856 5856 5858 5861 5861 5857 5855 5856 5857 5858 5859 5858 5862 5863 5858 5855 5855 5854 5857 5860 5861 5863 5866 5867 5868 5870 5873 5875 5876 5877 5878 5878 5879 5880 5881 5882 5882 5882 5883 5885 5886 5886 5886 5885 5886 5887 5888 5890 5893 5894 5895 5896 5898 5900
5867 5866 5865 5865 5864 5864 5863 5863 5862 5862 5861 5861 5861 5861 5860 5860 5859 5859 5858 5857 5857 5856 5856 5857 5856 5857 5859 5858 5855 5855 5855 5855 5855 5855 5855 5856 5858 5859 5858 5855 5854 5855 5855 5856 5857 5856 5858 5859 5856 5853 5853 5852 5854 5858 5859 5862 5865 5864 5864 5868 5871 5872 5874 5875 5877 5878 5878 5879 5881 5881 5881 5882 5882 5882 5883 5884 5883 5882 5883 5885 5886 5888 5890 5891 5892 5893 5895 5896
5864 5863 5863 5862 5861 5861 5861 5861 5860 5860 5859 5859 5859 5859 5858 5858 5857 5856 5856 5856 5855 5855 5856 5857 5856 5857 5861 5861 5857 5854 5854 5854 5854 5855 5856 5856 5855 5854 5854 5853 5853 5853 5853 5854 5854 5853 5853 5855 5854 5852 5852 5853 5852 5855 5858 5861 5862 5861 5862 5866 5868 5869 5872 5873 5875 5877 5878 5879 5879 5879 5879 5880 5880 5880 5881 5882 5880 5879 5882 5884 5885 5886 5887 5887 5888 5889 5889 5891
5861 5860 5860 5859 5858 5858 5858 5858 5858 5857 5857 5857 5856 5857 5856 5855 5854 5854 5854 5854 5854 5854 5854 5856 5856 5856 5860 5863 5859 5855 5854 5855 5855 5855 5857 5856 5854 5852 5852 5853 5852 5851 5851 5852 5852 5851 5850 5852 5853 5851 5852 5854 5852 5852 5856 5858 5858 5858 5861 5863 5865 5868 5871 5872 5874 5875 5876 5877 5878 5878 5878 5878 5879 5879 5880 5880 5878 5878 5880 5882 5884 5885 5886 5886 5886 5886 5886 5887
5857 5857 5856 5856 5855 5855 5855 5855 5855 5855 5855 5854 5854 5854 5854 5853 5852 5852 5853 5852 5852 5853 5852 5854 5854 5854 5856 5858 5857 5856 5856 5855 5854 5855 5856 5855 5853 5852 5851 5852 5852 5850 5850 5849 5850 5850 5848 5850 5851 5849 5850 5852 5850 5850 5854 5855 5855 5856 5859 5862 5864 5867 5869 5870 5872 5873 5874 5875 5876 5876 5876 5876 5877 5877 5879 5879 5879 5877 5878 5880 5882 5883 5885 5886 5887 5887 5886 5887
5854 5853 5853 5852 5852 5852 5852 5852 5852 5852 5852 5852 5852 5852 5851 5851 5850 5850 5850 5850 5850 5851 5850 5850 5851 5853 5854 5852 5853 5856 5855 5853 5853 5855 5855 5853 5852 5851 5850 5850 5850 5849 5848 5847 5848 5848 5847 5848 5847 5847 5848 5848 5848 5850 5851 5851 5853 5855 5858 5860 5863 5865 5867 5868 5870 5871 5872 5873 5875 5875 5875 5876 5875 5875 5877 5878 5878 5877 5877 5878 5879 5881 5884 5886 5886 5887 5888 5889
5849 5849 5849 5849 5849 5849 5849 5849 5849 5849 5849 5850 5850 5849 5848 5848 5848 5848 5848 5848 5848 5848 5848 5848 5848 5850 5851 5851 5851 5852 5851 5850 5851 5854 5854 5852 5851 5851 5848 5846 5847 5847 5846 5847 5848 5847 5846 5846 5845 5845 5846 5846 5848 5849 5848 5848 5851 5853 5855 5858 5861 5864 5866 5866 5868 5870 5870 5871 5873 5873 5874 5875 5874 5874 5876 5877 5877 5877 5877 5877 5879 5880 5883 5884 5885 5886 5888 5889
5845 5845 5845 5845 5845 5845 5845 5845 5846 5846 5846 5847 5846 5846 5846 5846 5846 5845 5846 5846 5846 5846 5846 5846 5845 5846 5847 5848 5848 5847 5847 5849 5851 5852 5853 5852 5851 5849 5845 5844 5845 5845 5845 5847 5847 5845 5844 5844 5844 5844 5845 5845 5846 5846 5845 5847 5849 5851 5853 5856 5859 5861 5863 5865 5867 5868 5869 5870 5871 5872 5872 5873 5873 5874 5875 5876 5876 5877 5877 5878 5879 5880 5882 5883 5883 5885 5887 5888
5841 5840 5841 5841 5840 5841 5842 5842 5842 5843 5843 5843 5843 5843 5843 5843 5843 5843 5844 5844 5843 5844 5844 5844 5844 5845 5844 5844 5845 5845 5846 5849 5850 5850 5850 5850 5848 5845 5842 5842 5843 5843 5845 5847 5845 5842 5842 5843 5843 5843 5843 5844 5845 5845 5845 5846 5848 5850 5852 5854 5856 5858 5859 5862 5864 5864 5866 5868 5870 5871 5871 5871 5872 5873 5873 5875 5876 5876 5877 5878 5877 5878 5880 5881 5881 5883 5885 5887
5837 5836 5836 5837 5836 5837 5838 5838 5838 5839 5839 5839 5840 5840 5840 5840 5841 5841 5841 5841 5841 5841 5842 5842 5842 5843 5842 5841 5843 5844 5844 5845 5846 5845 5846 5847 5845 5841 5839 5840 5842 5842 5842 5842 5841 5841 5841 5841 5840 5841 5842 5843 5844 5845 5844 5844 5847 5849 5850 5851 5853 5855 5856 5859 5861 5861 5863 5866 5867 5868 5868 5868 5870 5871 5872 5873 5875 5876 5876 5876 5876 5876 5878 5880 5880 5881 5883 5885
5833 5832 5832 5832 5833 5833 5834 5834 5835 5835 5836 5836 5836 5837 5837 5837 5838 5838 5839 5839 5839 5839 5839 5840 5840 5839 5839 5840 5840 5841 5841 5842 5843 5843 5843 5843 5841 5838 5837 5838 5839 5840 5839 5838 5839 5840 5840 5840 5839 5840 5841 5842 5843 5843 5841 5842 5845 5846 5845 5847 5850 5852 5854 5857 5858 5859 5861 5864 5866 5866 5866 5866 5867 5869 5870 5871 5874 5875 5874 5874 5875 5875 5876 5876 5877 5879 5881 5882
5828 5827 5827 5828 5828 5829 5829 5830 5831 5831 5831 5831 5833 5833 5834 5834 5835 5835 5836 5836 5836 5837 5837 5836 5837 5837 5837 5838 5838 5838 5839 5839 5841 5842 5840 5841 5841 5837 5835 5836 5837 5837 5836 5836 5837 5838 5839 5838 5838 5838 5840 5840 5840 5840 5840 5841 5843 5843 5843 5846 5848 5850 5852 5855 5856 5857 5859 5862 5864 5863 5864 5865 5866 5867 5869 5870 5871 5872 5873 5873 5874 5876 5875 5874 5875 5877 5879 5880
5822 5822 5822 5823 5824 5824 5825 5825 5826 5828 5827 5827 5829 5830 5830 5832 5831 5831 5833 5833 5833 5834 5834 5834 5835 5835 5835 5836 5836 5837 5837 5837 5838 5839 5837 5839 5841 5838 5833 5834 5835 5834 5835 5835 5836 5836 5836 5836 5836 5837 5838 5838 5838 5838 5839 5840 5841 5842 5844 5845 5847 5848 5850 5852 5854 5855 5856 5859 5860 5861 5862 5864 5865 5866 5867 5868 5869 5870 5871 5873 5874 5875 5875 5874 5874 5875 5877 5879
5816 5816 5818 5818 5818 5819 5820 5821 5822 5823 5823 5824 5825 5826 5827 5829 5829 5828 5830 5830 5830 5831 5832 5832 5832 5833 5833 5833 5834 5834 5835 5835 5835 5836 5836 5836 5838 5837 5834 5833 5833 5833 5834 5834 5834 5834 5834 5833 5833 5834 5836 5837 5837 5837 5838 5839 5840 5841 5843 5845 5846 5847 5848 5850 5851 5852 5854 5856 5857 5858 5860 5862 5863 5864 5865 5866 5867 5869 5870 5871 5873 5874 5874 5874 5874 5874 5875 5876
5810 5811 5812 5813 5813 5814 5815 5816 5818 5818 5819 5820 5821 5822 5824 5825 5826 5826 5826 5827 5828 5828 5829 5830 5830 5830 5831 5830 5831 5832 5832 5832 5833 5834 5834 5834 5834 5835 5835 5835 5834 5832 5832 5833 5833 5832 5832 5831 5831 5832 5834 5834 5835 5836 5836 5838 5838 5838 5841 5844 5844 5843 5845 5846 5847 5849 5852 5853 5854 5856 5858 5858 5860 5863 5864 5865 5867 5868 5869 5870 5872 5873 5874 5874 5875 5874 5874 5875
5806 5806 5806 5808 5808 5809 5810 5811 5813 5814 5814 5815 5817 5818 5820 5821 5822 5823 5823 5824 5825 5826 5826 5827 5828 5828 5828 5827 5828 5830 5830 5830 5830 5831 5831 5831 5831 5832 5833 5835 5834 5831 5831 5832 5832 5831 5830 5829 5829 5831 5832 5832 5833 5834 5835 5836 5837 5836 5837 5840 5842 5842 5843 5843 5844 5847 5849 5850 5851 5852 5855 5856 5857 5860 5862 5864 5866 5867 5868 5870 5871 5872 5873 5874 5874 5874 5874 5875
5801 5801 5801 5803 5803 5803 5805 5806 5808 5809 5810 5811 5814 5815 5816 5818 5819 5820 5820 5820 5822 5823 5824 5824 5825 5825 5825 5824 5825 5827 5828 5828 5828 5827 5827 5828 5830 5830 5830 5831 5831 5831 5831 5832 5830 5829 5829 5829 5828 5829 5830 5831 5831 5832 5833 5834 5835 5835 5836 5838 5839 5840 5841 5841 5842 5844 5846 5848 5847 5848 5853 5856 5856 5857 5859 5862 5864 5866 5867 5868 5870 5871 5872 5873 5873 5873 5873 5874
5796 5796 5796 5797 5798 5799 5801 5802 5802 5804 5806 5808 5809 5811 5812 5814 5815 5815 5816 5817 5819 5820 5820 5821 5822 5823 5823 5822 5823 5825 5827 5826 5824 5823 5824 5825 5827 5828 5827 5827 5827 5828 5830 5830 5829 5828 5827 5827 5827 5828 5828 5829 5830 5830 5831 5832 5832 5832 5834 5836 5837 5837 5838 5839 5841 5841 5842 5845 5846 5846 5850 5854 5854 5855 5857 5859 5862 5864 5865 5867 5868 5870 5870 5871 5872 5872 5872 5873